Weather History for LEAL - March, 2014

Change the Weather History Date:

Thursday, March 27, 2014

  Actual Average Record
Temperature  
Mean Temperature 60 °F -  
Max Temperature 71 °F 67 °F 77 °F (2015)
Min Temperature 50 °F 50 °F 42 °F (1997)
Degree Days  
Heating Degree Days 4    
Growing Degree Days 10 (Base 50)    
Moisture  
Dew Point 35 °F    
Average Humidity 42    
Maximum Humidity 82    
Minimum Humidity 9    
Precipitation  
Precipitation 0.00 in - - ()
Sea Level Pressure  
Sea Level Pressure 29.89 in    
Wind  
Wind Speed 10 mph ()    
Max Wind Speed 20 mph    
Max Gust Speed 32 mph    
Visibility 9.3 miles    
Events      
Averages and records for this station are not official NWS values.
T = Trace of Precipitation, MM = Missing Value Source: Averaged Metar Reports

Daily Weather History Graph

Daily Weather History Graph

Search for Another Location

Airport or City:

Trip Planner

Search our weather history database for the weather conditions in past years. The results will help you decide how hot, cold, wet, or windy it might be!

Date:

Astronomy

Mar. 27, 2014 Rise Set
Actual Time 6:55 AM CET 7:20 PM CET
Civil Twilight 6:28 AM CET 7:47 PM CET
Nautical Twilight 5:57 AM CET 8:18 PM CET
Astronomical Twilight 5:26 AM CET 8:50 PM CET
Moon 4:33 AM CET (3/27) 3:53 PM CET (3/27)
Length of Visible Light 13h 18m
Length of Day
12h 25m
Waning Crescent, 15% of the Moon is Illuminated
Mar 27
Waning Crescent
Mar 30
New
Apr 7
First Quarter
Apr 15
Full
Apr 22
Last Quarter

Hourly Weather History & Observations

Time (CET) Temp. Dew Point Humidity Pressure Visibility Wind Dir Wind Speed Gust Speed Precip Events Conditions
12:00 AM 55 °F 31 °F 27% 29.94 in - West 12.7 mph - -  
12:00 AM 55.4 °F 30.2 °F 38% 29.92 in - WNW 13.8 mph - N/A   Clear
12:30 AM 55.4 °F 32.0 °F 41% 29.92 in - West 12.7 mph - N/A   Clear
1:00 AM 55 °F 31 °F 27% 29.94 in 9 mi West 11.5 mph - -   Clear
1:00 AM 55.4 °F 32.0 °F 41% 29.92 in - West 10.4 mph - N/A   Clear
1:30 AM 55.4 °F 32.0 °F 41% 29.92 in - West 9.2 mph - N/A   Clear
2:00 AM 55 °F 32 °F 29% 29.93 in - West 13.8 mph - -  
2:00 AM 55.4 °F 32.0 °F 41% 29.92 in - West 13.8 mph - N/A   Clear
2:30 AM 55.4 °F 32.0 °F 41% 29.92 in - WNW 8.1 mph - N/A   Clear
3:00 AM 53 °F 31 °F 31% 29.92 in - WNW 4.6 mph - -  
3:00 AM 53.6 °F 32.0 °F 44% 29.92 in - WNW 8.1 mph - N/A   Clear
3:30 AM 53.6 °F 32.0 °F 44% 29.89 in - Variable 2.3 mph - N/A   Clear
4:00 AM 52 °F 31 °F 32% 29.90 in 9 mi NW 9.2 mph - -   Clear
4:00 AM 51.8 °F 32.0 °F 47% 29.89 in - NW 3.5 mph - N/A   Clear
4:30 AM 51.8 °F 32.0 °F 47% 29.89 in - NW 18.4 mph - N/A   Clear
5:00 AM 51 °F 31 °F 34% 29.90 in - NW 19.6 mph - -  
5:00 AM 51.8 °F 32.0 °F 47% 29.89 in - NW 17.3 mph - N/A   Clear
5:30 AM 51.8 °F 32.0 °F 47% 29.89 in - WNW 19.6 mph - N/A   Clear
6:00 AM 51 °F 31 °F 35% 29.90 in - WNW 18.4 mph - -  
6:00 AM 51.8 °F 32.0 °F 47% 29.89 in - NW 16.1 mph - N/A   Clear
6:30 AM 50.0 °F 32.0 °F 50% 29.89 in - WNW 18.4 mph - N/A   Clear
7:00 AM 51 °F 32 °F 35% 29.91 in 25 mi WNW 17.3 mph - -  
7:00 AM 51.8 °F 32.0 °F 47% 29.89 in - WNW 16.1 mph - N/A   Clear
7:30 AM 51.8 °F 32.0 °F 47% 29.89 in - WNW 17.3 mph - N/A   Clear
8:00 AM 52 °F 31 °F 32% 29.93 in - West 10.4 mph - -  
8:00 AM 51.8 °F 30.2 °F 44% 29.92 in - West 10.4 mph - N/A   Clear
8:30 AM 53.6 °F 32.0 °F 44% 29.92 in - SW 9.2 mph - N/A   Clear
9:00 AM 55 °F 30 °F 26% 29.94 in - WSW 12.7 mph - -  
9:00 AM 53.6 °F 30.2 °F 41% 29.92 in - WSW 11.5 mph - N/A   Clear
9:30 AM 57.2 °F 28.4 °F 33% 29.92 in - WNW 15.0 mph - N/A   Clear
10:00 AM 60 °F 28 °F 18% 29.93 in 19 mi West 11.5 mph - -  
10:00 AM 59.0 °F 28.4 °F 31% 29.92 in - West 12.7 mph - N/A   Clear
10:30 AM 60.8 °F 28.4 °F 29% 29.92 in - West 11.5 mph - N/A   Clear
11:00 AM 64 °F 26 °F 14% 29.92 in - WNW 12.7 mph - -  
11:00 AM 62.6 °F 26.6 °F 26% 29.92 in - WNW 13.8 mph - N/A   Clear
11:30 AM 64.4 °F 24.8 °F 22% 29.92 in - WNW 10.4 mph - N/A   Clear
12:00 PM 66 °F 24 °F 11% 29.91 in - West 9.2 mph - -  
12:00 PM 66.2 °F 24.8 °F 21% 29.89 in - WNW 10.4 mph - N/A   Clear
12:30 PM 66.2 °F 19.4 °F 17% 29.89 in - West 9.2 mph - N/A   Clear
1:00 PM 67 °F 25 °F 11% 29.89 in 19 mi WNW 10.4 mph - -   Scattered Clouds
1:00 PM 66.2 °F 24.8 °F 21% 29.89 in 6.2 mi WNW 9.2 mph - N/A   Partly Cloudy
1:30 PM 66.2 °F 24.8 °F 21% 29.86 in 6.2 mi WNW 5.8 mph - N/A   Partly Cloudy
2:00 PM 69 °F 24 °F 9% 29.86 in - WNW 3.5 mph - -  
2:00 PM 68.0 °F 23.0 °F 18% 29.86 in 6.2 mi NW 4.6 mph - N/A   Partly Cloudy
2:30 PM 68.0 °F 26.6 °F 21% 29.86 in 6.2 mi West 10.4 mph - N/A   Partly Cloudy
3:00 PM 69 °F 30 °F 13% 29.83 in - South 13.8 mph - -  
3:00 PM 68.0 °F 24.8 °F 20% 29.83 in 6.2 mi South 19.6 mph 32.2 mph N/A   Partly Cloudy
3:30 PM 64.4 °F 35.6 °F 34% 29.83 in 6.2 mi South 17.3 mph - N/A   Partly Cloudy
4:00 PM 63 °F 36 °F 26% 29.86 in 19 mi South 13.8 mph - -   Scattered Clouds
4:00 PM 62.6 °F 35.6 °F 37% 29.86 in 6.2 mi South 17.3 mph - N/A   Partly Cloudy
4:30 PM 62.6 °F 33.8 °F 34% 29.86 in 6.2 mi SSE 11.5 mph - N/A   Partly Cloudy
5:00 PM 62 °F 39 °F 31% 29.86 in - South 13.8 mph - -  
5:00 PM 60.8 °F 37.4 °F 42% 29.86 in 6.2 mi South 11.5 mph - N/A   Partly Cloudy
5:30 PM 60.8 °F 42.8 °F 52% 29.86 in 6.2 mi South 12.7 mph - N/A   Partly Cloudy
6:00 PM 60 °F 47 °F 52% 29.86 in - SSE 12.7 mph - -  
6:00 PM 59.0 °F 46.4 °F 63% 29.86 in 6.2 mi SSE 12.7 mph - N/A   Partly Cloudy
6:30 PM 59.0 °F 50.0 °F 72% 29.86 in 6.2 mi South 11.5 mph - N/A   Partly Cloudy
7:00 PM 60 °F 49 °F 56% 29.86 in 19 mi SSE 9.2 mph - -  
7:00 PM 59.0 °F 48.2 °F 67% 29.86 in 6.2 mi SSE 9.2 mph - N/A   Partly Cloudy
7:30 PM 57.2 °F 48.2 °F 72% 29.86 in - SSE 3.5 mph - N/A   Clear
8:00 PM 57 °F 47 °F 62% 29.86 in - ENE 2.3 mph - -  
8:00 PM 57.2 °F 48.2 °F 72% 29.86 in - Variable 2.3 mph - N/A   Clear
8:30 PM 57.2 °F 48.2 °F 72% 29.86 in - Variable 2.3 mph - N/A   Clear
9:00 PM 56 °F 47 °F 62% 29.88 in - SSE 1.2 mph - -  
9:00 PM 55.4 °F 46.4 °F 72% 29.86 in - Variable 2.3 mph - N/A   Clear
9:30 PM 55.4 °F 48.2 °F 77% 29.86 in - Variable 1.2 mph - N/A   Clear
10:00 PM 54 °F 47 °F 70% 29.88 in 12 mi SSE 2.3 mph - -  
10:00 PM 53.6 °F 48.2 °F 82% 29.86 in - Variable 2.3 mph - N/A   Clear
10:30 PM 53.6 °F 46.4 °F 77% 29.86 in - Calm Calm - N/A   Clear
11:00 PM 53 °F 46 °F 69% 29.89 in - North 4.6 mph - -  
11:00 PM 53.6 °F 46.4 °F 77% 29.89 in - North 3.5 mph - N/A   Clear
11:30 PM 51.8 °F 46.4 °F 82% 29.86 in - North 5.8 mph - N/A   Clear